Tracking 19219 objects as of 19-Jul-2018
HD Live streaming from Space Station
objects crossing your sky now

ARIANE 5 DEB (SYLDA)

Track ARIANE 5 DEB (SYLDA) now!
10-day predictions


NORAD ID: 40616
Int'l Code: 2015-022D
Perigee: 173.5 km
Apogee: 13,840.3 km
Inclination: 5.6 °
Period: 256.7 minutes
Semi major axis: 13377 km
RCS: Unknown
Launch date: April 26, 2015
Source: France (FR)
Launch site: FRENCH GUIANA (FRGUI)

Note: This is SATELLITE DEBRIS
aabbcc
Your satellite tracking list
Your tracking list is empty




NASA's NSSDC Master Catalog

Two Line Element Set (TLE):
1 40616U 15022D   18200.29243378  .00489972 -29431-6  30733-2 0  9999
2 40616   5.6345 148.1081 5107972 186.0180 164.0438  5.61073427 43435
Source of the keplerian elements: AFSPC